Regional Weather Roundup
Issued by NWS

Home | Current Version | Previous Version | Graphics & Text | Print | Product List | Glossary On
Versions: 1 2 3 4 5 6 7 8 9 10 11 12 13 14 15 16 17 18 19 20 21 22 23 24 25 26 27 28 29 30 31 32 33 34 35 36 37 38 39 40 41 42 43 44 45 46 47 48 49 50
000
ASUS43 KFSD 161110
RWRSD

WEATHER ROUNDUP FOR SOUTH DAKOTA
NATIONAL WEATHER SERVICE SIOUX FALLS SD
500 AM CST SAT DEC 16 2017

NOTE: "FAIR" INDICATES FEW OR NO CLOUDS BELOW 12,000 FEET WITH NO
SIGNIFICANT WEATHER AND/OR OBSTRUCTIONS TO VISIBILITY.


SDZ001>005-009-010-012>017-161200-
NORTHWEST AND NORTH CENTRAL SOUTH DAKOTA

CITY           SKY/WX    TMP DP  RH WIND       PRES   REMARKS
BUFFALO          N/A     36  32  85 NW15      29.74R
FAITH            N/A     34  28  79 NW17      29.77R WCI  23
MOBRIDGE       CLOUDY    37  28  70 NW9       29.71R
$$

SDZ012>016-024>037-041>051-057-063-072>074-161200-
SOUTHWEST AND SOUTH CENTRAL SOUTH DAKOTA

CITY           SKY/WX    TMP DP  RH WIND       PRES   REMARKS
RAPID CTY ARPT CLEAR     38  18  44 NW16      29.79R
PIERRE         CLOUDY    36  26  67 W10       29.73R
CUSTER         CLOUDY    33  14  45 N5        29.79R WCI  29
ELLSWORTH AFB  PTCLDY    39  18  43 NW10      29.78R
PHILIP         CLEAR     37  24  59 NW13      29.75R
PINE RIDGE     CLOUDY    24  19  81 SE3       29.77R
SPEARFISH      MOCLDY    36  19  51 W7        29.82R
WINNER         FAIR      35  23  61 W6        29.73R
$$

SDZ004>011-016>023-039-040-161200-
NORTHEAST SOUTH DAKOTA

CITY           SKY/WX    TMP DP  RH WIND       PRES   REMARKS
ABERDEEN       CLOUDY    36  29  75 NW9       29.68S
WATERTOWN      CLOUDY    31  26  82 NW9       29.65R WCI  23
BROOKINGS      CLOUDY    30  25  81 MISG      29.67R
SISSETON         N/A     33  29  85 NW9       29.65R WCI  25
$$

SDZ017-020-022-023-036>040-048>070-161200-
SOUTHEAST SOUTH DAKOTA

CITY           SKY/WX    TMP DP  RH WIND       PRES   REMARKS
SIOUX FALLS    CLOUDY    33  26  75 NW5       29.67R WCI  29
HURON          CLOUDY    28  23  81 NW7       29.71R WCI  21
CHAMBERLAIN    CLOUDY    37  26  65 N7        29.71F
MITCHELL       CLOUDY    33  25  72 W9        29.72R WCI  25
YANKTON        CLOUDY    36  24  62 SW5       29.71R
$$

ABBREVIATIONS USED IN REMARKS
   TC - TEMPERATURE IN CELSIUS
  WCI - WIND CHILL INDEX
   HX - HEAT INDEX
  VSB - VISIBILITY




USA.gov is the U.S. government's official web portal to all federal, state and local government web resources and services.